This is the latest recevied weather packets stored in our database for station/object VE8SKI. If no packets are shown the sender has not sent any weather packets the latest 10 day(s).
| Time | Temp. | Humidity | Pressure | Rain* | Wind** | Luminosity | Snow |
|---|---|---|---|---|---|---|---|
| 1777642875 | 3.33° C | 91% | 1008.5 hPa | 0 mm | 3.13 m/s, 23° | - | - |
| 1777642575 | 3.33° C | 92% | 1008.5 hPa | 0 mm | 2.68 m/s, 37° | - | - |
| 1777642275 | 3.33° C | 93% | 1008.5 hPa | 0 mm | 3.58 m/s, 30° | - | - |
| 1777641976 | 3.33° C | 94% | 1008.4 hPa | 0 mm | 4.47 m/s, 4° | - | - |
| 1777641673 | 3.33° C | 94% | 1008.4 hPa | 0 mm | 3.13 m/s, 7° | - | - |
| 1777641374 | 3.33° C | 95% | 1008.5 hPa | 0 mm | 3.13 m/s, 31° | - | - |
| 1777641074 | 3.33° C | 95% | 1008.4 hPa | 0 mm | 3.58 m/s, 0° | - | - |
| 1777640774 | 2.78° C | 95% | 1008.3 hPa | 0 mm | 3.58 m/s, 24° | - | - |
| 1777640475 | 2.78° C | 95% | 1008.3 hPa | 0 mm | 3.13 m/s, 10° | - | - |
| 1777640175 | 2.78° C | 95% | 1008.2 hPa | 0 mm | 2.68 m/s, 6° | - | - |
| 1777639873 | 3.33° C | 95% | 1008.3 hPa | 0 mm | 2.68 m/s, 1° | - | - |
| 1777639573 | 2.78° C | 95% | 1008.3 hPa | 0 mm | 4.02 m/s, 1° | - | - |
| 1777639273 | 2.78° C | 96% | 1008.3 hPa | 0 mm | 3.13 m/s, 7° | - | - |
| 1777638974 | 3.33° C | 96% | 1008.3 hPa | 0 mm | 3.13 m/s, 0° | - | - |
| 1777638674 | 3.33° C | 96% | 1008.2 hPa | 0 mm | 3.13 m/s, 21° | - | - |
| 1777638374 | 2.78° C | 96% | 1008.2 hPa | 0 mm | 4.47 m/s, 18° | - | - |
| 1777638072 | 2.78° C | 96% | 1008.2 hPa | 0 mm | 3.58 m/s, 354° | - | - |
| 1777637772 | 2.78° C | 96% | 1008.2 hPa | 0 mm | 2.68 m/s, 15° | - | - |
| 1777637473 | 2.78° C | 96% | 1008.2 hPa | 0 mm | 3.13 m/s, 15° | - | - |
| 1777637173 | 2.78° C | 97% | 1008.2 hPa | 0 mm | 4.02 m/s, 18° | - | - |
| 1777636873 | 2.78° C | 97% | 1008.1 hPa | 0 mm | 4.92 m/s, 359° | - | - |
| 1777636573 | 2.78° C | 97% | 1008.1 hPa | 0 mm | 3.13 m/s, 15° | - | - |
| 1777636271 | 2.78° C | 97% | 1008.1 hPa | 0 mm | 3.13 m/s, 6° | - | - |
| 1777635971 | 2.78° C | 97% | 1007.9 hPa | 0 mm | 3.58 m/s, 345° | - | - |
| 1777635672 | 2.78° C | 97% | 1007.9 hPa | 0 mm | 3.13 m/s, 24° | - | - |
* Rain latest hour (hover to see other rain measurements)
** Current wind speed in m/s (hover to see current wind gust speed)